Wind_Speed
50 52 53 54 52 52 51 49 50 48 46 44 42 42 38 36 40 37 37 39 34 30 29 26 24 29 36 35 31 29 29 30 30 31 31 29 31 32 34 34 31 30 29 28 30 31 30 27 26 27 31 33 32 31 30 32 35 32 28 27 27 28 28 25 23 22 22 23 23 22 20 16 14 13 13 13 13 11 10 10 10 10 10 10 10 11
50 52 53 52 51 50 48 49 50 48 48 47 43 43 41 38 37 33 38 40 34 31 29 28 26 28 33 34 33 32 28 30 31 30 29 28 29 32 34 35 36 34 33 34 33 32 30 28 27 28 31 32 31 29 27 29 31 27 25 28 27 28 28 27 25 24 23 22 23 21 18 14 13 14 14 13 12 10 10 10 10 10 10 10 11 11
52 53 52 50 50 49 48 50 50 48 51 51 47 46 42 38 31 27 39 43 35 32 30 30 28 26 33 36 33 32 30 31 32 31 29 27 29 34 33 32 36 36 33 33 32 30 28 28 29 29 31 32 29 27 26 26 28 26 26 27 25 26 28 29 26 23 21 21 22 20 16 14 14 14 14 13 12 11 10 10 10 10 11 11 12 12
52 51 51 50 49 49 50 51 50 51 55 54 50 46 40 36 29 24 39 46 38 34 30 28 29 29 36 40 33 30 30 31 31 30 29 28 29 34 32 27 29 34 30 27 28 27 26 28 28 28 30 30 27 24 23 24 26 26 26 24 22 23 26 27 25 22 21 20 21 20 17 15 15 15 14 13 12 11 11 11 11 11 12 12 13 13
49 48 48 49 49 50 51 51 51 54 56 52 47 44 37 33 31 27 38 45 38 34 30 25 28 34 39 41 35 28 27 29 31 30 27 28 29 29 29 25 23 27 26 24 25 25 27 29 27 26 28 28 26 24 24 25 26 27 27 25 22 21 21 22 22 22 22 21 19 17 16 15 15 16 15 14 12 11 12 11 11 12 12 13 13 13
47 46 46 47 48 51 52 50 51 54 54 50 47 46 38 32 29 29 37 43 40 36 35 32 33 37 38 37 33 29 29 29 30 31 28 27 29 27 24 25 24 22 20 20 21 22 25 28 28 27 28 29 29 28 27 26 26 27 26 27 26 22 20 21 21 20 20 20 18 15 15 15 16 16 15 14 13 12 12 12 12 12 12 13 13 14
47 46 46 46 48 52 52 49 51 54 51 48 48 47 43 36 28 30 40 45 42 39 39 39 38 35 35 37 33 29 31 31 29 30 28 26 27 25 21 21 21 20 20 20 20 20 22 25 27 25 26 29 30 30 30 29 27 26 23 23 25 22 21 22 21 19 18 17 17 16 16 16 16 15 15 14 14 13 13 13 12 12 12 13 13 14
46 47 47 48 52 53 50 49 50 51 48 47 49 48 47 43 33 33 44 45 40 38 38 39 38 32 30 36 36 31 31 31 31 30 27 25 25 22 21 21 19 19 19 21 20 20 23 24 24 23 24 25 27 28 29 29 28 27 23 20 21 21 19 20 19 17 16 15 16 17 16 16 16 15 15 14 14 13 13 13 13 12 13 13 13 14
44 48 51 52 53 51 48 48 47 48 47 45 48 49 48 48 43 37 41 42 38 36 34 37 42 36 29 35 38 33 31 31 31 31 28 25 25 23 23 23 21 20 19 19 20 21 22 21 20 21 20 21 22 22 23 24 25 25 22 19 18 19 18 17 15 14 15 16 16 17 16 16 16 15 15 15 14 14 14 14 14 13 13 14 14 14
43 50 53 51 48 45 45 46 46 48 47 43 48 53 49 49 49 44 42 40 37 35 32 33 43 44 35 37 39 32 31 33 30 29 28 25 25 25 24 24 21 20 20 19 19 20 19 17 17 18 18 19 19 17 18 21 23 21 20 19 17 17 16 15 15 15 16 16 16 16 16 16 16 15 15 15 14 14 14 14 14 14 14 14 15 15
48 52 50 46 44 42 43 46 48 48 45 46 53 55 51 49 49 48 45 39 36 38 38 36 41 44 37 38 41 33 30 32 31 29 27 25 25 24 23 22 21 21 20 19 18 18 17 15 15 17 18 19 19 17 19 21 23 21 20 20 20 19 18 17 16 16 16 16 15 16 16 16 15 15 15 15 15 14 14 14 15 15 15 15 15 15
52 52 46 44 43 43 44 46 49 47 44 50 56 53 50 50 48 47 44 41 41 43 44 44 42 39 38 40 42 37 32 30 30 30 28 24 23 24 24 23 23 23 21 19 17 17 17 15 15 17 19 20 22 22 22 22 24 23 21 20 20 20 19 18 17 16 15 15 15 16 16 16 16 16 16 15 15 15 15 15 15 15 15 15 15 15
52 50 45 44 44 45 47 48 50 48 46 53 57 53 51 50 48 48 45 44 48 45 42 46 43 36 38 42 41 40 36 33 30 29 28 26 25 26 26 25 25 24 21 18 17 17 19 17 16 18 20 21 24 25 22 22 24 25 24 23 21 19 18 17 16 16 15 16 16 16 16 16 16 16 16 16 16 16 16 16 16 17 17 17 16 15
51 48 44 44 46 48 48 48 51 51 50 55 57 51 51 51 50 51 50 47 51 49 42 42 42 38 38 39 42 44 38 33 32 30 28 28 28 28 26 25 24 23 20 17 17 18 21 21 19 19 20 20 23 25 22 21 23 24 25 24 21 19 17 17 16 16 16 17 17 17 17 17 17 17 17 17 16 17 17 17 18 18 18 18 17 17
49 45 43 45 47 48 48 50 52 48 49 55 54 48 48 49 50 53 51 46 48 48 44 42 38 34 35 35 40 46 40 34 32 31 30 27 28 30 29 25 23 22 19 17 18 20 24 24 20 17 17 18 22 24 22 21 23 23 22 22 21 19 18 17 17 17 18 18 18 18 19 18 18 18 18 18 18 18 18 18 18 19 19 19 19 19
47 41 40 43 45 48 50 50 48 44 47 53 51 48 48 48 47 50 49 45 43 40 40 44 40 36 40 41 42 46 44 38 33 31 32 30 29 32 30 24 21 20 19 18 19 23 26 23 18 18 18 18 19 22 23 23 23 23 21 20 20 20 19 19 19 19 19 19 19 19 19 20 20 20 20 19 19 19 19 19 19 19 20 20 20 21
47 41 41 42 44 48 48 47 46 46 47 51 50 49 51 48 39 39 46 48 45 40 38 45 49 47 50 48 43 43 44 41 38 34 31 31 32 32 28 23 21 20 19 20 22 25 27 22 19 20 19 19 19 19 20 20 19 21 22 21 21 21 21 20 20 20 19 19 19 20 20 21 20 20 20 20 20 20 20 20 20 20 20 21 21 22
46 40 42 42 42 46 45 44 46 48 47 48 50 49 47 46 37 30 35 42 47 45 37 41 51 54 52 49 45 45 44 41 40 39 35 32 32 31 26 23 22 22 21 22 24 27 27 22 18 18 18 20 21 18 17 17 16 18 20 21 22 21 20 20 19 19 19 19 19 20 20 20 19 19 19 20 21 21 21 20 20 20 21 21 22 22
43 39 42 43 41 44 45 44 47 50 50 48 47 45 43 45 46 37 32 39 49 51 42 38 47 53 51 51 50 48 47 43 41 42 40 35 32 29 26 24 24 24 23 23 25 27 24 19 16 17 18 20 19 16 17 17 16 16 18 20 22 21 21 20 20 20 19 18 18 18 19 18 19 19 20 20 21 21 21 20 20 21 21 22 22 22
44 41 45 45 42 43 44 45 48 49 51 50 45 45 46 48 50 45 40 43 47 50 49 38 35 44 49 51 52 49 46 44 42 42 40 36 33 30 26 26 26 24 24 25 26 26 21 16 15 18 19 18 17 17 19 19 16 16 18 21 22 21 22 21 21 21 20 19 19 19 19 19 19 20 20 20 20 20 20 20 21 21 21 22 22 22
44 41 44 46 44 43 44 46 50 49 50 51 48 47 49 49 49 45 42 43 43 44 51 46 34 34 40 46 52 50 45 44 42 42 40 36 34 32 29 29 28 26 26 27 27 26 21 16 17 19 18 17 18 20 21 21 19 18 19 21 23 22 23 22 22 21 21 21 20 20 19 19 20 20 20 20 20 20 21 21 22 22 23 23 23 23
43 41 44 47 44 41 42 44 48 48 45 48 50 50 50 48 49 48 42 42 46 42 43 50 47 39 36 40 47 49 46 44 44 42 41 38 36 34 33 31 29 28 28 28 28 27 22 18 20 20 19 20 21 21 21 21 22 20 18 19 21 22 24 23 22 21 20 20 20 19 19 19 20 21 21 21 21 22 22 23 23 24 24 25 24 24
43 43 44 45 42 39 41 43 44 45 42 45 50 50 50 50 50 54 47 41 45 42 34 36 40 42 46 45 44 43 41 40 42 43 42 40 38 35 33 32 31 30 29 29 28 27 24 23 23 21 20 21 22 23 22 21 22 21 19 18 19 21 23 23 21 20 20 20 20 20 20 20 21 21 22 22 23 23 24 24 25 25 26 26 26 26
43 42 42 42 40 37 39 41 42 43 44 49 50 47 50 52 52 55 50 37 38 42 37 29 27 36 50 53 48 44 40 38 40 42 42 42 39 33 31 31 31 30 30 29 29 29 27 26 24 21 21 22 22 23 22 21 21 22 21 20 19 20 22 22 20 20 20 20 20 21 21 22 22 22 23 24 24 24 25 26 26 27 27 27 27 28
45 41 39 40 39 39 41 43 44 46 47 50 49 47 49 47 46 52 50 40 38 43 45 40 35 35 40 45 48 46 42 40 40 40 41 41 37 31 29 30 31 31 31 29 30 30 28 26 24 23 22 22 22 23 22 22 23 23 24 24 23 21 21 21 20 20 20 19 19 19 20 22 22 23 24 24 25 25 26 27 28 28 28 28 28 29
44 40 38 39 40 42 42 43 45 46 49 49 46 49 51 45 42 50 52 48 46 48 49 47 46 45 40 36 40 42 41 41 39 40 42 39 35 30 29 29 30 30 31 30 30 29 28 27 26 24 23 21 22 23 23 22 23 24 26 26 24 22 20 20 20 20 20 19 19 19 19 21 22 23 24 25 26 27 28 29 29 29 29 29 30 31
42 40 38 37 38 37 36 40 42 43 47 50 47 49 53 50 48 51 52 52 50 48 48 47 46 49 48 40 37 37 37 38 38 37 38 36 34 32 30 29 29 30 31 31 29 29 29 29 27 25 23 22 22 23 23 23 23 25 25 24 21 18 17 18 19 19 20 20 20 20 20 21 22 23 24 26 27 28 29 30 30 31 31 31 31 32
40 40 39 36 33 28 30 37 40 40 44 48 48 48 50 50 50 51 51 51 50 47 44 44 45 46 47 47 44 38 35 36 36 33 32 32 33 32 31 30 30 31 32 31 31 30 30 29 28 26 25 23 22 22 23 24 23 22 21 19 18 16 16 17 17 17 18 19 20 21 21 22 22 23 25 26 27 29 30 31 32 32 32 32 33 33
37 39 38 36 31 24 26 34 39 40 41 43 46 47 47 49 50 52 52 50 51 50 43 38 41 43 42 44 44 39 36 36 35 33 31 30 31 31 31 30 30 31 32 32 32 31 31 30 29 28 26 23 22 23 24 24 23 22 20 18 16 15 14 15 15 15 16 18 19 20 20 21 22 23 25 26 28 30 31 32 33 33 33 33 34 35
37 39 37 36 34 29 26 28 34 39 40 41 44 45 45 47 48 50 52 50 50 52 46 38 37 40 42 43 42 41 40 38 36 35 33 30 29 29 29 30 30 30 31 32 32 32 32 31 30 29 27 27 26 25 25 25 24 23 21 18 15 14 13 13 14 15 17 18 19 20 21 23 24 25 26 27 29 31 32 34 34 34 34 34 35 36
38 38 37 36 34 33 29 23 26 36 40 40 42 43 43 44 46 47 49 49 48 48 48 45 42 41 40 39 39 41 41 36 33 34 33 30 29 28 28 29 29 29 30 32 33 34 34 33 32 32 32 32 30 26 25 26 24 22 20 17 15 14 14 14 15 16 19 20 22 24 25 26 26 27 28 29 30 32 34 35 36 35 35 36 37 38
37 36 37 37 35 35 35 31 30 36 39 40 41 42 43 44 46 48 48 48 48 46 45 46 45 43 40 37 37 38 38 33 29 30 31 29 28 29 29 29 29 29 30 32 34 35 35 34 35 34 33 31 29 27 26 26 25 23 20 17 15 15 16 16 18 19 21 22 24 25 26 27 28 29 30 31 32 33 35 36 37 37 37 38 39 39
35 36 36 36 35 35 36 36 34 34 37 41 42 43 45 45 46 48 49 48 48 47 45 45 45 44 40 38 39 39 37 32 27 26 27 27 27 28 29 30 30 31 33 34 35 34 34 34 35 33 31 30 31 31 30 28 26 24 20 17 16 17 18 19 21 22 23 24 25 26 27 28 30 30 30 31 32 34 36 38 39 39 39 40 40 39
35 36 34 34 34 34 34 34 33 33 36 39 40 41 44 46 47 48 49 49 48 48 47 46 45 42 39 39 39 37 34 34 31 27 27 27 28 28 29 29 30 33 35 34 33 32 33 35 35 34 33 33 33 34 32 29 26 22 19 17 17 19 21 22 23 24 25 26 27 27 28 29 30 30 30 31 33 36 38 40 41 41 41 40 40 38
33 33 32 33 31 30 31 31 31 33 35 35 36 38 39 42 46 48 48 49 49 48 48 47 45 43 41 40 39 36 34 35 36 35 32 30 29 29 29 29 30 31 31 31 32 33 35 37 38 37 36 35 34 34 32 29 25 20 18 18 19 21 23 24 25 26 27 28 29 30 31 31 31 32 32 32 33 36 40 42 43 41 40 40 39 36
30 30 31 32 29 26 28 29 29 31 33 31 33 36 36 38 42 45 46 48 49 48 48 47 46 45 41 38 38 38 35 34 36 37 34 33 32 30 29 29 28 28 28 30 33 36 38 39 39 36 33 32 33 32 30 27 23 19 18 19 20 22 23 25 26 27 28 29 30 32 33 34 34 35 35 34 33 36 39 42 41 40 39 38 35 31
26 27 28 29 29 27 26 27 28 29 30 29 29 32 35 38 40 41 42 44 47 47 46 46 47 46 41 37 37 36 33 33 35 36 35 34 33 31 29 28 27 28 30 32 34 37 38 37 34 31 28 27 27 26 25 23 20 18 18 19 20 22 24 26 27 28 29 30 31 33 35 36 36 35 33 32 32 34 37 39 39 38 36 34 30 29
25 24 25 27 28 27 25 25 27 28 28 29 28 29 33 36 37 39 39 40 42 44 43 44 44 42 39 39 39 35 31 32 35 35 34 33 32 31 30 29 28 28 29 30 32 34 35 33 30 29 29 27 24 20 19 19 18 18 18 20 22 24 25 26 27 27 29 30 32 35 37 36 34 31 29 28 30 33 35 35 35 33 31 29 28 29
25 25 25 26 27 26 25 26 26 26 27 29 28 28 30 32 33 35 38 40 41 41 41 41 41 40 40 42 40 35 33 33 33 33 32 31 31 31 30 28 27 27 27 29 30 33 33 31 29 26 25 25 21 18 17 16 16 17 20 21 23 25 25 26 26 27 28 29 32 33 32 30 28 26 26 27 30 31 31 30 29 28 27 27 28 29
24 26 28 28 25 25 27 27 25 24 25 26 26 27 29 30 31 33 36 38 39 40 39 39 39 40 42 42 38 35 35 33 31 30 30 30 31 31 28 27 26 26 27 28 29 29 29 28 27 25 22 20 18 16 16 16 18 20 22 23 24 25 25 25 25 26 27 29 30 29 25 22 21 21 22 24 26 26 26 26 25 25 26 27 29 30
24 26 28 28 26 26 28 29 26 23 22 23 25 27 29 29 30 32 35 37 37 37 37 37 38 40 41 39 35 34 35 34 31 29 30 32 32 30 28 27 27 27 27 27 27 26 25 25 25 24 22 19 16 16 18 19 20 21 23 24 24 25 24 24 24 24 25 26 27 25 22 20 20 20 20 21 23 23 24 24 24 25 27 28 29 29
23 24 25 26 27 27 27 28 27 24 22 23 25 26 27 27 27 29 32 33 34 33 32 34 36 37 38 36 34 33 36 37 33 30 30 31 31 29 29 29 29 29 29 29 28 27 25 25 24 23 21 19 18 19 20 20 21 22 23 24 23 23 23 23 23 24 24 24 24 22 21 20 20 20 21 21 22 22 23 23 25 26 27 28 28 28
19 20 20 22 25 26 27 28 28 25 21 21 23 24 25 25 26 28 28 29 31 31 30 31 33 34 35 35 35 36 38 37 34 32 31 31 30 31 32 32 32 31 30 29 28 26 25 25 25 24 22 21 21 21 21 21 23 23 23 23 22 22 22 23 23 23 23 23 22 21 20 20 20 20 21 21 21 22 23 24 25 26 26 27 27 28
16 17 18 20 23 25 26 27 28 26 22 19 20 22 23 23 25 26 26 26 27 29 29 30 31 32 33 34 35 37 37 36 34 32 31 31 30 31 32 32 32 31 30 28 27 26 25 25 24 23 23 23 23 23 23 23 23 23 22 22 21 21 22 23 23 23 22 22 21 20 20 20 20 20 20 21 21 22 23 24 25 25 26 26 27 28
16 16 17 19 22 24 26 26 26 26 24 21 21 22 23 24 25 26 26 25 25 26 28 28 29 31 32 32 34 36 35 34 32 31 30 31 31 31 30 30 30 30 29 28 27 27 27 26 24 24 24 24 24 24 23 23 23 22 21 21 21 22 23 23 22 22 22 21 21 20 19 19 20 20 20 21 22 22 23 24 24 25 26 26 27 27
18 18 18 19 20 24 27 27 25 25 25 25 24 23 24 26 27 27 26 25 25 25 26 26 26 28 30 31 32 32 32 32 30 29 30 31 31 30 30 31 31 30 30 29 29 29 28 27 26 26 26 25 24 24 23 22 22 21 21 21 22 23 23 22 22 22 22 21 20 20 19 20 20 20 21 21 21 22 23 23 24 25 25 25 26 26
21 21 21 19 20 23 26 26 24 24 26 28 28 26 26 27 28 27 26 25 24 25 26 25 25 25 27 29 29 29 28 29 29 29 30 30 29 29 31 33 32 31 31 32 32 31 29 29 28 27 26 26 25 23 22 22 21 22 22 22 23 23 23 23 22 21 21 20 20 20 20 20 20 21 21 21 21 22 22 23 23 24 24 25 25 26
22 23 22 20 19 21 23 24 25 26 27 29 29 27 27 29 29 28 28 26 25 25 26 25 25 25 25 26 26 27 27 28 30 30 30 29 27 28 31 33 34 34 34 34 34 33 32 31 29 27 27 26 24 23 22 22 22 22 22 22 23 23 23 22 21 20 20 20 19 19 20 20 20 21 21 21 21 22 22 22 23 23 24 25 25 26
22 22 22 20 19 20 20 22 25 26 27 29 29 28 27 28 29 29 29 28 27 26 26 26 25 24 24 24 25 27 29 30 31 31 30 29 28 28 29 31 33 35 36 36 36 35 33 30 28 27 26 25 23 22 22 22 21 22 22 22 23 22 21 20 20 20 20 19 19 20 20 20 21 21 21 21 21 21 22 22 23 23 24 25 26 26
23 22 22 21 20 20 20 21 24 25 25 26 27 27 26 27 28 28 29 29 29 28 27 27 25 24 24 24 25 27 29 31 32 31 30 30 30 29 29 30 32 34 34 33 33 32 29 28 28 27 25 23 22 22 22 21 21 21 21 21 21 20 20 19 19 19 19 19 20 20 20 21 21 20 21 21 21 22 22 22 23 24 24 25 25 26
24 24 23 22 22 21 21 22 23 23 22 23 24 24 24 25 26 27 28 28 28 28 28 27 26 26 25 24 26 27 29 31 33 32 31 32 31 30 30 32 33 33 32 31 30 28 27 27 27 25 23 23 22 22 21 21 21 22 21 21 20 20 20 19 19 19 19 20 20 20 20 21 21 21 21 21 21 22 22 23 23 23 23 24 25 25
Wind_Direction
214 214 215 215 215 215 214 214 214 211 213 215 218 220 217 221 222 218 228 229 219 222 224 224 220 213 223 232 232 236 236 231 229 228 227 226 224 225 231 235 233 230 230 232 235 239 244 246 249 252 244 235 232 236 238 234 230 228 231 231 228 228 229 228 226 228 231 232 237 239 230 217 218 233 242 247 254 261 266 268 273 278 282 285 286 288
214 214 215 215 215 215 213 213 212 210 212 213 214 217 214 216 222 219 228 228 218 221 223 225 222 214 223 233 230 231 234 231 231 233 233 232 229 226 229 232 232 233 231 228 231 236 240 243 245 246 245 235 228 237 243 237 234 233 232 230 227 228 229 229 228 228 228 230 232 228 218 216 225 235 238 245 255 261 265 269 274 279 283 286 290 292
213 213 214 213 214 214 213 212 211 209 213 213 211 213 212 214 216 219 230 227 217 219 222 227 224 215 224 229 227 229 230 229 230 231 231 231 233 230 230 235 235 235 233 228 230 234 237 243 248 248 242 230 225 239 246 239 237 236 235 232 226 225 227 227 226 224 226 228 222 214 215 223 228 234 238 243 253 260 265 271 277 282 286 290 294 296
213 213 212 211 212 212 212 211 209 209 213 213 213 213 212 211 205 212 230 225 215 216 220 229 229 219 226 229 226 227 228 229 230 231 230 226 231 235 237 242 235 229 229 230 232 234 236 242 247 247 239 229 231 242 242 235 232 232 233 231 223 222 223 224 222 222 224 220 214 216 223 227 228 233 239 244 251 257 263 271 278 284 289 292 296 297
214 213 213 211 210 211 212 211 208 210 214 212 212 213 210 209 204 207 227 224 215 216 214 220 228 223 227 232 228 224 226 231 231 231 231 225 228 235 237 239 232 227 230 233 235 234 235 238 240 242 240 237 240 243 241 236 230 228 230 228 225 222 219 219 219 220 218 212 214 222 224 226 230 233 238 245 250 255 261 269 277 283 289 292 295 297
214 213 213 212 211 212 213 210 209 212 214 211 210 210 205 202 205 212 225 224 217 216 213 213 222 224 227 232 231 226 226 229 230 231 230 225 228 232 232 234 233 232 232 230 234 236 234 235 238 242 244 242 242 243 243 240 233 227 227 227 226 224 223 226 222 213 206 207 215 224 226 228 231 234 240 246 251 256 261 268 276 284 289 293 296 298
212 212 211 211 212 213 213 210 210 213 212 210 210 209 205 198 200 217 223 221 217 217 218 218 222 227 232 236 232 227 228 227 226 228 226 222 225 228 228 231 232 230 228 227 231 236 233 232 236 239 239 240 242 245 247 247 240 231 227 223 220 221 224 220 208 198 201 213 223 227 230 230 231 237 242 247 251 256 261 267 276 283 287 291 295 297
210 211 209 209 211 212 211 210 211 212 209 210 211 209 209 202 197 215 223 220 217 220 223 223 223 225 236 242 235 227 227 226 223 223 222 221 221 224 225 225 224 219 220 225 228 229 230 232 235 235 235 238 242 246 246 245 241 234 229 220 213 213 209 199 194 202 218 229 232 232 234 234 236 240 243 248 254 258 262 267 273 279 283 287 291 293
208 212 210 209 211 209 209 210 211 212 206 208 212 209 210 209 204 212 220 217 216 219 222 225 224 219 226 240 236 228 227 226 224 222 219 219 217 219 224 223 221 217 216 220 222 226 232 239 242 236 232 237 240 242 243 242 241 237 229 219 208 204 202 203 211 226 237 240 240 240 240 240 241 244 247 251 255 260 264 268 271 274 278 282 286 289
210 215 212 210 211 208 208 210 210 211 204 204 213 209 207 212 213 215 216 213 212 216 218 225 227 220 220 236 235 228 230 230 228 225 218 214 214 215 222 225 222 221 220 222 225 232 241 250 250 236 228 233 233 240 253 247 238 232 223 215 208 204 212 226 235 242 245 247 246 245 245 244 245 247 250 252 255 261 267 270 272 274 278 282 285 288
212 215 212 208 209 208 208 210 211 210 200 202 213 210 206 210 215 219 219 212 209 214 217 219 225 221 219 234 236 229 230 232 231 232 224 215 213 214 217 223 226 226 226 227 231 238 245 252 252 239 232 233 235 253 267 251 234 227 216 214 220 225 235 244 246 245 246 246 246 246 247 247 248 249 252 255 259 265 270 274 276 277 279 282 285 288
213 214 210 205 206 206 207 209 212 208 199 205 213 209 207 210 212 218 219 214 210 214 220 220 221 222 220 229 238 235 233 232 231 235 233 224 220 219 215 216 224 229 230 230 234 242 248 253 254 246 240 238 244 260 268 252 238 232 221 221 231 238 243 245 244 244 243 243 244 245 247 248 249 252 255 258 264 269 273 276 278 277 278 279 283 288
215 212 207 204 203 205 206 207 211 206 199 209 213 207 207 209 211 215 216 214 213 213 221 222 221 224 223 226 236 239 236 235 234 234 233 230 226 223 217 213 218 226 228 229 233 242 251 255 252 246 242 244 251 261 264 253 243 240 237 236 240 242 243 243 240 240 240 241 243 246 249 251 253 255 258 262 267 272 275 276 276 275 275 276 281 286
215 210 205 203 203 206 206 206 210 204 201 211 214 206 207 208 210 215 214 216 217 215 219 221 220 225 228 227 233 236 233 231 233 232 228 229 230 229 224 218 219 224 226 228 232 241 249 250 244 241 241 246 254 259 260 254 247 247 245 242 239 240 242 240 239 239 241 243 247 250 252 255 257 259 263 267 270 273 274 275 274 274 275 277 281 284
216 209 205 204 204 206 206 207 210 204 203 213 213 205 207 209 212 216 215 216 218 218 221 221 217 221 227 228 230 232 230 227 229 231 228 227 232 234 232 225 223 226 227 229 233 240 245 245 244 246 248 252 255 256 255 251 248 247 245 239 237 239 239 239 239 241 244 246 249 252 255 258 260 263 266 269 270 271 272 273 273 274 276 278 281 284
217 212 209 207 206 208 208 208 209 203 205 215 213 205 205 207 212 218 216 216 219 218 221 221 215 214 219 224 226 228 230 229 226 229 230 229 232 235 235 230 228 229 229 230 234 240 245 249 253 255 254 256 258 256 252 248 247 247 244 238 236 238 238 238 239 242 246 249 252 256 258 259 262 264 265 267 268 270 271 272 274 275 278 280 282 285
215 214 212 208 208 210 209 209 208 202 205 214 212 206 206 203 207 217 217 217 219 217 220 222 218 219 223 225 227 228 229 230 229 230 233 232 231 234 235 234 232 230 229 231 234 240 245 246 248 249 250 255 260 255 246 244 247 250 247 240 236 238 239 240 242 246 250 252 254 256 257 258 260 263 266 268 269 269 271 272 274 277 280 282 284 286
213 214 213 208 210 211 208 208 209 204 204 211 211 206 206 204 202 213 216 217 219 218 220 223 221 224 228 228 228 230 231 231 232 233 233 233 231 232 235 234 232 230 228 230 233 240 244 243 243 245 247 253 256 249 237 236 244 246 244 240 237 238 240 242 245 248 250 251 252 252 253 256 260 264 267 269 269 270 272 274 276 279 281 283 285 287
208 214 215 207 209 211 207 207 209 207 206 209 208 204 204 204 205 209 211 215 219 218 218 224 225 225 229 230 230 232 233 232 233 234 234 234 232 232 234 234 234 233 231 233 237 241 244 245 248 248 245 248 248 239 231 233 239 241 239 237 237 237 239 240 242 243 245 247 247 248 250 254 259 264 267 269 271 273 274 277 278 280 282 284 286 289
203 213 217 208 208 210 206 207 210 210 209 207 204 202 205 207 207 209 213 216 218 218 219 222 226 225 227 231 232 232 233 234 235 237 237 236 234 232 233 234 234 235 235 238 241 243 244 241 239 239 239 238 234 230 229 230 239 246 241 236 235 235 236 237 239 241 243 244 245 247 251 255 260 264 267 270 272 274 276 278 280 283 286 287 289 291
200 210 218 210 207 209 207 208 211 211 210 209 206 202 204 207 207 208 216 219 216 217 220 222 224 227 229 232 234 233 233 233 235 238 238 237 235 233 232 233 234 234 236 239 240 241 241 232 227 231 235 235 233 233 232 234 244 252 244 238 236 235 235 237 239 242 244 245 247 249 252 256 260 263 266 270 274 277 279 281 284 287 289 290 292 295
199 206 216 211 207 209 209 209 213 213 211 212 211 207 204 206 206 208 212 218 217 215 221 225 226 230 231 231 234 235 233 233 235 236 237 236 233 230 230 232 233 233 236 238 237 238 237 229 226 229 233 238 242 244 243 244 250 252 246 240 235 233 236 239 242 245 246 248 250 252 255 257 260 264 269 273 276 278 280 283 286 288 290 293 295 297
202 207 214 211 205 207 211 211 212 212 210 212 215 212 209 208 209 211 212 215 217 213 216 225 226 229 232 232 234 236 233 231 233 234 236 236 233 228 226 228 230 232 234 235 233 233 232 230 231 231 233 240 245 250 252 252 252 250 245 239 235 237 240 243 245 246 247 250 254 256 259 261 263 267 271 273 275 277 279 282 285 287 291 293 296 298
205 208 213 211 205 205 210 212 211 210 210 213 213 211 212 214 214 214 213 215 219 216 215 219 218 225 232 233 235 237 234 231 232 233 234 236 234 228 225 226 228 230 232 233 232 232 230 230 233 234 237 242 245 249 253 252 251 249 244 242 245 244 243 243 245 247 249 254 257 260 261 262 264 267 269 271 273 276 279 282 285 288 291 293 296 298
206 208 211 209 205 202 206 209 209 208 210 214 213 209 210 214 216 216 213 214 220 221 220 221 222 225 231 233 234 237 237 235 234 234 234 234 234 230 226 226 227 229 230 231 232 233 232 231 233 236 239 243 248 253 253 251 250 247 244 250 255 247 238 239 242 244 249 254 258 260 261 261 264 267 269 271 274 277 280 282 284 287 289 292 294 296
208 209 212 211 210 208 208 210 209 209 211 213 212 210 209 211 214 216 216 215 219 222 222 223 225 228 230 232 235 236 238 237 235 235 235 233 232 231 227 225 227 229 231 231 232 233 233 232 234 237 238 243 250 253 251 248 248 245 247 254 254 244 237 238 243 248 252 255 258 261 262 263 266 267 270 272 275 277 279 280 283 285 287 290 293 295
208 210 212 211 213 214 214 215 213 211 212 213 212 211 212 213 215 217 217 216 217 221 223 223 225 229 231 232 234 235 237 237 235 236 236 234 232 231 227 225 226 228 230 230 230 231 232 234 236 237 238 241 245 246 244 244 247 249 250 252 250 248 247 249 251 255 257 257 260 262 264 267 268 270 272 274 275 276 278 279 281 284 286 288 291 294
206 210 211 209 209 209 212 216 217 216 216 216 215 214 213 214 215 217 218 217 217 220 223 223 224 228 231 232 234 236 236 235 236 236 235 231 230 229 226 225 226 227 228 229 229 229 232 234 235 236 236 238 239 240 240 242 245 249 250 249 251 258 260 257 257 258 258 258 259 262 265 268 269 271 273 274 275 276 277 279 280 282 284 287 290 293
205 210 211 208 206 206 208 212 215 217 217 218 218 217 216 215 215 217 218 217 217 219 221 224 226 228 231 232 234 237 236 233 235 236 234 231 227 225 224 224 224 226 227 227 227 228 231 233 233 234 235 236 237 238 240 241 242 246 249 246 248 255 258 258 259 259 259 261 262 264 267 269 272 274 274 275 276 276 276 278 279 281 283 286 289 291
204 209 210 207 206 209 210 211 214 216 216 216 216 216 217 218 218 221 221 218 218 218 217 219 223 228 231 232 235 238 238 235 235 234 230 229 226 223 223 222 221 223 225 226 227 228 230 231 231 233 234 235 236 238 241 242 242 245 247 243 240 244 249 252 256 259 262 264 266 268 269 272 275 276 276 276 275 275 275 276 278 279 282 285 287 289
204 208 209 205 206 210 210 207 213 216 214 214 216 216 216 217 220 224 225 224 222 222 220 219 220 224 228 230 233 237 237 236 235 229 224 223 222 219 218 220 220 221 223 225 227 228 230 231 232 234 236 235 236 239 244 245 242 243 244 240 238 239 242 247 255 261 264 267 269 271 272 275 276 276 276 275 274 274 274 275 277 278 280 282 284 286
206 209 209 205 205 212 212 208 211 215 213 212 214 215 214 216 218 221 224 225 225 226 225 224 223 224 225 226 227 231 232 230 228 225 222 221 220 218 216 216 216 218 221 225 227 229 231 234 236 238 240 242 242 243 245 244 241 242 244 241 241 244 247 253 259 264 268 271 273 273 275 276 277 277 276 275 273 272 272 273 274 275 276 278 280 283
206 210 211 208 207 213 216 215 215 217 215 212 213 212 212 214 217 220 222 223 223 224 224 225 226 226 227 227 228 232 232 227 225 227 225 222 221 220 218 216 215 215 218 223 227 230 233 237 241 243 244 246 243 238 238 239 236 236 240 242 245 250 254 258 263 268 273 276 277 277 278 278 277 277 277 276 272 270 270 270 270 270 272 274 277 282
206 210 211 211 211 214 218 218 216 216 216 215 215 215 214 214 216 219 221 222 222 221 222 224 224 224 225 226 227 231 231 226 227 233 230 224 221 219 218 218 217 217 219 222 224 229 233 237 240 242 243 244 240 233 231 232 230 231 237 244 249 253 257 262 267 273 276 279 280 280 280 280 279 278 279 278 274 271 270 268 267 266 268 272 277 283
206 208 209 210 209 212 218 220 216 215 215 215 216 216 217 218 219 220 221 222 222 221 220 222 223 222 224 225 226 229 228 225 227 230 229 225 222 219 218 219 219 219 221 222 223 227 231 234 238 240 239 239 240 235 228 224 224 229 237 245 252 258 263 268 271 274 276 277 279 280 280 281 280 279 280 279 275 272 270 268 266 266 269 275 280 284
206 206 208 208 204 206 215 217 215 215 216 216 216 215 216 219 220 222 223 224 224 223 221 220 222 223 223 225 228 229 227 225 224 225 225 224 223 221 220 219 219 220 220 221 223 227 229 233 238 240 238 240 241 234 221 217 223 234 244 251 258 264 268 271 273 274 275 276 278 279 280 279 279 278 278 277 275 272 270 268 267 269 274 279 283 285
202 204 208 207 203 204 210 214 214 214 214 216 217 216 218 219 220 221 224 226 227 226 223 222 223 224 224 225 227 227 226 226 224 223 223 224 224 223 221 220 218 218 219 220 223 227 231 234 238 240 241 243 239 226 217 222 235 247 254 259 263 268 271 273 276 278 279 280 280 280 279 278 278 278 276 274 274 272 270 268 269 273 278 282 285 287
196 199 206 209 206 203 206 213 218 217 214 215 217 217 220 222 222 222 225 227 228 227 226 225 226 226 227 228 228 227 227 226 223 221 221 222 223 223 222 221 219 219 222 224 226 230 233 236 241 245 242 238 233 229 231 240 248 254 260 264 267 271 274 277 280 282 283 283 283 283 281 277 276 275 275 274 273 270 269 270 272 277 281 284 288 290
195 195 202 210 208 204 205 210 217 220 217 217 217 216 218 220 220 222 225 228 228 227 227 226 226 226 229 231 230 228 227 226 223 220 218 218 220 221 221 222 222 222 224 225 227 232 235 238 243 244 234 229 234 243 247 248 252 258 263 267 271 275 278 280 283 284 286 286 286 288 286 278 273 273 275 274 271 268 269 273 276 280 284 287 290 291
198 201 204 205 202 202 205 206 212 219 218 217 218 216 216 217 216 218 222 225 226 227 227 227 227 227 228 229 228 226 226 226 224 219 215 215 217 219 220 221 222 223 225 226 229 233 237 240 242 239 234 237 246 249 248 252 256 261 266 270 274 277 280 282 284 285 287 287 287 289 287 278 273 274 274 272 270 270 273 277 280 284 287 289 290 291
202 206 208 202 195 198 204 203 206 213 214 215 216 215 215 216 215 217 222 223 224 225 226 226 227 227 228 229 228 227 227 228 226 220 215 216 217 217 216 216 217 219 222 224 227 232 236 239 241 243 247 252 250 245 248 254 258 262 268 272 276 278 280 282 282 282 283 283 283 284 282 276 273 273 272 271 272 274 278 281 285 287 288 288 289 290
207 209 208 202 196 198 203 202 203 207 208 210 213 212 213 213 213 216 222 223 223 224 225 225 226 227 227 227 226 226 226 227 226 220 217 217 216 214 213 213 215 220 222 224 226 229 232 235 239 245 249 247 244 246 251 255 259 264 270 273 276 279 279 279 278 276 276 277 278 278 276 273 272 272 272 273 275 278 281 284 285 285 286 287 289 291
206 209 209 206 203 202 203 203 203 204 206 210 212 212 211 208 208 212 217 221 223 223 224 225 225 225 225 223 223 224 224 224 223 220 217 217 215 213 214 217 220 224 228 230 231 232 231 232 236 241 242 241 243 248 252 256 262 267 271 274 276 278 278 277 274 272 272 273 274 273 272 271 271 272 273 274 277 280 282 282 283 284 285 288 289 291
197 201 203 205 207 207 207 208 207 204 205 208 208 210 210 205 203 207 211 215 218 219 220 222 221 221 222 221 222 223 224 223 221 218 217 216 215 214 217 221 223 225 226 227 229 230 231 233 238 240 237 237 241 248 253 259 264 268 271 273 275 276 276 274 272 272 273 273 272 270 269 269 271 272 274 275 277 279 280 280 282 284 286 288 290 293
195 197 198 200 204 207 208 211 210 208 210 211 207 207 209 204 202 206 209 211 212 213 214 217 217 217 218 220 221 223 224 222 220 216 215 216 216 215 217 221 222 223 224 224 225 227 229 233 237 236 233 236 243 250 256 261 265 268 269 270 273 273 273 272 273 274 275 274 272 270 269 269 271 273 274 275 276 278 279 281 283 285 286 289 292 296
201 199 197 196 202 205 206 209 210 209 212 215 213 211 210 207 206 207 207 208 210 210 211 214 215 215 216 217 219 221 223 222 217 213 214 217 216 214 214 217 219 221 223 224 225 228 230 232 233 232 234 240 247 253 258 263 265 266 266 268 271 271 271 272 273 273 273 272 270 269 269 270 272 273 274 275 276 278 279 281 283 285 288 292 296 300
209 204 198 195 199 204 205 208 211 211 212 213 213 212 210 209 209 209 208 208 210 210 211 213 213 213 214 216 217 217 219 218 213 212 215 218 216 213 213 215 218 221 223 222 222 225 229 230 230 232 237 245 251 255 261 263 263 263 265 268 270 271 271 271 269 269 268 267 266 267 268 270 272 273 274 275 276 278 280 282 285 288 293 297 300 302
211 208 202 197 197 200 203 206 209 210 210 210 211 212 212 210 210 210 210 210 210 211 212 213 214 214 214 214 214 212 211 211 210 211 215 217 216 215 214 216 218 221 222 223 223 224 225 225 228 234 242 248 254 258 261 260 260 262 266 269 270 270 269 267 265 264 263 263 265 267 270 271 272 273 274 275 277 279 281 285 290 294 298 299 300 301
208 208 204 201 199 199 202 206 208 210 210 209 210 212 213 212 211 211 212 212 212 213 214 213 214 216 217 216 215 212 209 208 209 211 213 215 216 217 216 217 219 222 225 226 223 220 219 224 231 239 245 251 255 257 257 257 259 263 266 267 268 267 264 261 260 260 261 264 268 270 271 272 273 274 275 277 280 283 286 291 294 296 298 299 299 301
204 201 201 201 200 198 200 204 207 209 210 209 209 211 212 212 211 212 212 213 214 215 215 214 213 214 216 216 215 213 211 210 211 212 213 213 214 215 215 216 219 223 224 221 216 215 221 230 238 243 248 252 254 254 254 256 259 261 262 263 262 260 258 257 257 260 264 268 270 271 272 273 273 275 278 280 284 287 290 293 294 295 296 297 299 301
201 196 196 198 198 194 193 196 199 201 202 203 204 206 208 209 209 210 211 213 214 214 214 212 210 211 213 214 213 212 210 208 209 211 213 214 213 213 214 216 219 220 218 216 217 223 232 239 242 246 250 251 250 250 252 256 258 258 257 256 255 255 254 256 258 262 265 268 270 271 272 273 274 277 279 282 285 288 290 291 292 293 295 297 299 302
Height
5697 5700 5703 5707 5712 5716 5723 5729 5734 5739 5744 5747 5751 5754 5758 5760 5761 5766 5765 5765 5771 5773 5774 5777 5779 5780 5779 5774 5773 5775 5777 5781 5785 5787 5788 5790 5793 5795 5796 5798 5798 5798 5800 5802 5804 5805 5806 5807 5808 5810 5812 5812 5811 5811 5810 5810 5811 5814 5817 5818 5819 5820 5821 5820 5821 5822 5822 5824 5825 5825 5825 5824 5823 5823 5823 5825 5826 5826 5827 5827 5828 5828 5828 5828 5828 5828
5693 5695 5700 5706 5711 5716 5721 5726 5730 5736 5739 5743 5746 5749 5753 5756 5760 5765 5763 5762 5769 5772 5773 5775 5776 5779 5778 5772 5771 5774 5776 5777 5780 5782 5786 5788 5791 5792 5792 5793 5795 5795 5796 5798 5800 5801 5803 5805 5806 5807 5809 5811 5812 5811 5812 5813 5814 5816 5817 5815 5815 5817 5819 5817 5818 5819 5820 5822 5823 5825 5824 5822 5821 5821 5822 5823 5824 5825 5826 5826 5826 5826 5826 5826 5826 5826
5687 5691 5698 5704 5708 5713 5718 5722 5727 5733 5735 5738 5742 5745 5750 5754 5760 5763 5759 5760 5767 5769 5771 5772 5774 5777 5775 5768 5768 5772 5774 5775 5778 5780 5783 5786 5788 5788 5789 5791 5792 5793 5794 5796 5798 5800 5801 5803 5804 5805 5806 5809 5810 5810 5811 5813 5814 5816 5815 5814 5813 5816 5817 5815 5815 5816 5818 5821 5822 5823 5822 5819 5819 5820 5821 5822 5823 5824 5824 5824 5825 5825 5824 5824 5824 5824
5684 5689 5695 5700 5704 5709 5713 5718 5724 5728 5728 5733 5739 5744 5750 5753 5759 5761 5755 5756 5763 5767 5769 5771 5772 5773 5769 5764 5766 5771 5774 5773 5775 5778 5781 5784 5786 5786 5788 5790 5790 5791 5794 5796 5797 5799 5800 5801 5802 5804 5805 5807 5809 5809 5808 5809 5810 5812 5812 5813 5812 5813 5814 5812 5813 5815 5817 5821 5821 5819 5817 5817 5818 5818 5819 5821 5822 5822 5823 5823 5823 5823 5823 5823 5823 5823
5683 5689 5693 5697 5701 5705 5709 5714 5720 5721 5724 5731 5738 5744 5749 5752 5756 5758 5752 5754 5762 5765 5768 5769 5769 5768 5764 5763 5766 5771 5773 5772 5773 5775 5779 5783 5785 5786 5789 5790 5789 5791 5794 5795 5796 5797 5798 5798 5800 5802 5804 5806 5808 5807 5806 5806 5807 5808 5809 5811 5811 5810 5811 5811 5812 5814 5817 5820 5818 5815 5814 5816 5816 5817 5818 5819 5820 5821 5821 5822 5822 5822 5822 5822 5822 5822
5680 5685 5690 5694 5699 5701 5704 5710 5716 5717 5722 5730 5735 5740 5745 5749 5754 5754 5750 5753 5759 5761 5763 5764 5765 5765 5762 5762 5765 5769 5770 5771 5772 5774 5778 5782 5783 5786 5788 5789 5789 5791 5792 5793 5794 5795 5796 5796 5798 5800 5801 5804 5805 5805 5804 5804 5805 5806 5807 5809 5808 5808 5809 5809 5811 5814 5816 5816 5814 5813 5813 5814 5815 5816 5817 5818 5819 5819 5820 5820 5821 5821 5821 5820 5820 5821
5676 5681 5686 5691 5694 5697 5701 5708 5712 5714 5722 5728 5732 5737 5740 5744 5750 5750 5746 5750 5755 5758 5760 5761 5763 5764 5762 5761 5765 5769 5768 5768 5771 5773 5777 5781 5782 5784 5786 5787 5787 5789 5791 5792 5793 5794 5794 5795 5796 5797 5799 5800 5802 5803 5803 5803 5804 5806 5806 5807 5806 5806 5807 5809 5811 5813 5814 5813 5812 5812 5813 5813 5814 5815 5816 5816 5817 5818 5818 5819 5819 5819 5819 5819 5819 5819
5673 5677 5682 5685 5687 5692 5699 5705 5709 5713 5720 5726 5728 5733 5737 5740 5745 5744 5743 5748 5754 5757 5758 5759 5762 5765 5763 5759 5761 5766 5767 5767 5769 5772 5776 5780 5782 5783 5784 5785 5785 5787 5788 5790 5791 5792 5791 5792 5794 5795 5796 5798 5800 5800 5801 5802 5803 5804 5805 5805 5805 5805 5807 5808 5810 5811 5811 5810 5810 5810 5811 5812 5813 5814 5814 5815 5816 5816 5817 5817 5818 5818 5818 5818 5818 5818
5671 5673 5676 5680 5683 5690 5697 5702 5707 5711 5717 5723 5725 5729 5734 5737 5739 5740 5741 5747 5752 5754 5756 5757 5758 5762 5762 5757 5756 5761 5764 5765 5767 5771 5775 5778 5781 5781 5781 5782 5782 5783 5786 5787 5788 5788 5789 5790 5792 5793 5794 5796 5797 5799 5800 5801 5801 5801 5802 5803 5804 5805 5806 5807 5808 5808 5807 5808 5809 5809 5810 5811 5812 5813 5813 5814 5814 5815 5815 5816 5816 5816 5816 5817 5817 5816
5668 5668 5672 5678 5684 5691 5696 5700 5703 5707 5715 5720 5720 5724 5730 5733 5736 5737 5739 5745 5750 5751 5753 5754 5754 5757 5761 5756 5754 5758 5761 5762 5765 5769 5773 5777 5779 5779 5779 5780 5780 5780 5783 5784 5785 5786 5787 5789 5790 5791 5792 5793 5795 5798 5799 5799 5799 5799 5800 5802 5803 5804 5805 5805 5805 5805 5806 5807 5808 5809 5810 5810 5811 5811 5812 5813 5813 5814 5814 5814 5815 5815 5815 5815 5815 5815
5661 5662 5669 5678 5684 5690 5693 5697 5699 5704 5713 5715 5714 5720 5727 5730 5733 5734 5738 5743 5747 5748 5749 5750 5750 5755 5759 5755 5753 5758 5761 5763 5764 5765 5769 5774 5777 5777 5778 5778 5778 5778 5780 5781 5783 5785 5786 5788 5789 5790 5791 5792 5794 5796 5797 5797 5798 5799 5800 5801 5802 5802 5803 5803 5803 5805 5806 5806 5807 5808 5809 5809 5810 5810 5811 5812 5812 5813 5813 5813 5813 5814 5814 5814 5813 5813
5655 5659 5668 5676 5681 5685 5689 5692 5695 5702 5709 5709 5709 5718 5724 5727 5730 5732 5736 5740 5742 5743 5744 5746 5749 5753 5756 5753 5752 5756 5760 5762 5763 5763 5765 5770 5773 5775 5777 5777 5777 5776 5778 5781 5783 5784 5784 5786 5788 5788 5790 5791 5792 5793 5795 5795 5797 5798 5800 5800 5800 5800 5801 5802 5803 5804 5805 5805 5806 5807 5808 5808 5809 5809 5810 5810 5811 5812 5812 5812 5812 5812 5813 5813 5812 5812
5651 5657 5666 5672 5676 5680 5683 5688 5691 5698 5705 5703 5705 5714 5720 5724 5727 5729 5732 5735 5737 5740 5741 5744 5749 5751 5752 5753 5752 5753 5757 5760 5762 5763 5765 5767 5769 5771 5774 5775 5774 5775 5777 5780 5781 5782 5782 5784 5785 5786 5788 5789 5789 5791 5793 5794 5795 5797 5798 5798 5798 5799 5800 5801 5802 5803 5804 5804 5805 5806 5806 5807 5808 5808 5809 5809 5810 5810 5810 5811 5811 5811 5811 5811 5811 5810
5648 5656 5663 5668 5672 5675 5680 5684 5686 5693 5700 5698 5701 5712 5717 5720 5723 5724 5728 5732 5734 5737 5739 5743 5748 5749 5750 5753 5751 5750 5754 5759 5760 5762 5765 5766 5766 5767 5769 5772 5773 5774 5776 5779 5780 5780 5780 5781 5782 5784 5787 5788 5788 5789 5791 5792 5793 5794 5795 5796 5797 5798 5799 5800 5801 5802 5802 5803 5803 5804 5805 5806 5806 5807 5807 5808 5808 5808 5809 5809 5809 5809 5809 5809 5809 5808
5647 5655 5660 5665 5669 5672 5677 5680 5683 5693 5698 5695 5701 5711 5715 5718 5720 5721 5726 5730 5731 5735 5739 5742 5746 5748 5749 5749 5748 5748 5752 5757 5759 5760 5762 5765 5766 5766 5768 5771 5773 5774 5776 5778 5779 5779 5777 5778 5781 5784 5786 5788 5788 5789 5790 5791 5792 5793 5794 5795 5796 5797 5798 5799 5800 5800 5801 5801 5802 5803 5804 5804 5805 5805 5806 5806 5806 5807 5807 5807 5807 5807 5807 5806 5806 5806
5649 5657 5661 5664 5667 5670 5674 5678 5684 5692 5695 5694 5700 5708 5711 5716 5719 5721 5725 5728 5729 5734 5736 5738 5742 5743 5743 5744 5744 5746 5750 5754 5757 5758 5760 5764 5765 5764 5768 5771 5772 5773 5775 5777 5777 5777 5776 5778 5781 5783 5784 5786 5787 5788 5789 5789 5791 5792 5793 5793 5794 5795 5796 5797 5797 5798 5799 5800 5801 5801 5802 5802 5802 5803 5803 5804 5804 5805 5805 5805 5805 5804 5804 5804 5804 5803
5648 5654 5657 5661 5665 5668 5673 5678 5682 5688 5691 5691 5697 5703 5708 5713 5717 5719 5722 5724 5727 5730 5732 5734 5738 5736 5736 5741 5743 5745 5748 5752 5755 5756 5758 5762 5763 5763 5767 5770 5771 5773 5774 5775 5776 5775 5775 5777 5780 5780 5782 5784 5785 5786 5787 5788 5790 5791 5791 5791 5792 5793 5794 5795 5796 5797 5798 5798 5799 5800 5800 5800 5800 5801 5801 5802 5803 5803 5803 5803 5803 5802 5802 5802 5801 5800
5648 5652 5653 5659 5663 5666 5672 5677 5679 5683 5686 5688 5694 5702 5707 5711 5714 5716 5719 5721 5723 5727 5729 5730 5732 5733 5735 5739 5741 5742 5746 5750 5752 5754 5756 5758 5760 5762 5765 5768 5769 5771 5773 5773 5774 5774 5774 5776 5779 5779 5781 5782 5782 5783 5785 5786 5788 5789 5789 5790 5791 5792 5793 5794 5795 5796 5796 5797 5797 5797 5798 5798 5798 5799 5800 5800 5801 5801 5801 5801 5801 5800 5800 5799 5799 5798
5647 5649 5650 5656 5660 5663 5669 5673 5675 5679 5683 5687 5693 5700 5703 5706 5709 5712 5714 5717 5719 5723 5726 5726 5728 5732 5734 5735 5737 5740 5744 5747 5750 5751 5754 5757 5758 5761 5764 5765 5767 5769 5771 5771 5772 5772 5773 5776 5778 5779 5779 5780 5781 5783 5784 5785 5787 5787 5788 5789 5790 5791 5791 5792 5793 5794 5794 5795 5795 5795 5795 5796 5796 5797 5798 5798 5799 5799 5799 5799 5798 5798 5798 5797 5796 5796
5644 5646 5647 5652 5656 5660 5666 5669 5671 5676 5680 5685 5690 5695 5699 5702 5706 5710 5711 5713 5716 5720 5723 5724 5726 5728 5731 5732 5734 5738 5742 5746 5748 5749 5752 5755 5757 5760 5762 5763 5765 5767 5768 5769 5770 5771 5772 5775 5776 5776 5777 5778 5780 5781 5783 5784 5786 5786 5787 5787 5788 5789 5789 5790 5791 5792 5792 5793 5793 5793 5794 5794 5795 5795 5796 5796 5797 5797 5797 5797 5796 5796 5795 5795 5794 5793
5641 5643 5644 5649 5653 5656 5661 5665 5668 5673 5678 5682 5686 5691 5695 5699 5704 5708 5709 5710 5713 5717 5720 5722 5724 5726 5730 5730 5731 5735 5740 5743 5746 5747 5749 5752 5754 5757 5759 5760 5763 5765 5766 5767 5768 5769 5770 5773 5774 5774 5776 5777 5778 5780 5781 5783 5784 5785 5785 5786 5787 5787 5788 5788 5789 5789 5790 5790 5791 5792 5792 5793 5793 5793 5794 5794 5794 5794 5794 5794 5794 5793 5793 5792 5791 5790
5637 5640 5641 5646 5651 5656 5660 5665 5668 5672 5678 5682 5684 5688 5692 5696 5699 5702 5704 5706 5711 5715 5718 5720 5723 5726 5727 5726 5727 5731 5736 5740 5743 5745 5747 5749 5750 5753 5756 5758 5760 5762 5763 5765 5766 5767 5769 5771 5771 5773 5775 5776 5776 5778 5779 5781 5782 5782 5783 5784 5785 5786 5786 5787 5787 5788 5788 5788 5789 5790 5790 5791 5791 5791 5792 5792 5792 5792 5791 5791 5791 5790 5790 5789 5788 5787
5634 5637 5639 5645 5651 5656 5659 5662 5666 5671 5677 5679 5682 5687 5691 5693 5695 5698 5702 5705 5708 5713 5716 5718 5722 5724 5722 5722 5725 5728 5733 5737 5739 5742 5744 5744 5746 5750 5754 5756 5757 5758 5760 5762 5763 5764 5766 5767 5769 5772 5774 5774 5775 5776 5777 5778 5779 5780 5781 5782 5783 5784 5784 5785 5785 5786 5786 5786 5787 5787 5788 5789 5789 5790 5790 5790 5790 5789 5789 5789 5788 5788 5787 5786 5785 5784
5631 5635 5639 5644 5650 5654 5657 5660 5664 5669 5672 5673 5677 5685 5689 5691 5693 5696 5701 5705 5706 5710 5714 5716 5718 5717 5717 5720 5723 5725 5729 5733 5736 5739 5741 5741 5744 5749 5751 5753 5755 5756 5757 5759 5760 5762 5763 5765 5767 5770 5771 5772 5772 5773 5775 5776 5777 5777 5778 5779 5780 5781 5782 5783 5783 5783 5784 5784 5785 5785 5786 5786 5787 5787 5787 5787 5787 5787 5786 5786 5785 5785 5784 5783 5782 5781
5630 5634 5637 5642 5646 5649 5651 5655 5659 5663 5667 5669 5675 5681 5685 5688 5691 5693 5698 5702 5704 5706 5711 5713 5714 5713 5714 5718 5720 5722 5726 5730 5733 5735 5736 5739 5744 5748 5749 5751 5752 5753 5755 5756 5757 5759 5761 5763 5765 5767 5768 5769 5770 5771 5772 5773 5774 5775 5776 5777 5778 5778 5779 5780 5780 5781 5782 5782 5783 5783 5783 5784 5784 5784 5784 5784 5784 5784 5783 5783 5782 5782 5781 5780 5779 5778
5629 5633 5636 5640 5643 5646 5649 5652 5655 5660 5663 5667 5672 5677 5679 5682 5686 5690 5694 5698 5700 5703 5706 5709 5710 5710 5712 5715 5717 5720 5722 5726 5730 5731 5732 5737 5742 5744 5746 5748 5749 5751 5752 5754 5756 5757 5759 5761 5762 5764 5766 5767 5768 5769 5770 5771 5772 5773 5774 5775 5775 5776 5776 5777 5778 5779 5780 5780 5780 5780 5781 5781 5781 5782 5782 5782 5781 5781 5780 5780 5779 5779 5778 5777 5776 5775
5627 5631 5635 5640 5644 5648 5652 5654 5656 5660 5662 5664 5669 5672 5676 5679 5683 5687 5690 5693 5698 5700 5702 5705 5707 5708 5710 5713 5715 5717 5720 5722 5726 5728 5731 5735 5739 5741 5743 5745 5747 5748 5750 5752 5754 5755 5756 5758 5760 5762 5764 5765 5766 5766 5767 5769 5770 5770 5772 5773 5773 5773 5774 5775 5776 5777 5777 5778 5778 5778 5778 5778 5779 5779 5779 5779 5778 5778 5777 5777 5776 5776 5775 5774 5773 5772
5626 5629 5633 5639 5643 5648 5651 5652 5655 5658 5661 5664 5668 5671 5674 5678 5681 5683 5686 5691 5695 5696 5698 5703 5705 5706 5708 5710 5712 5715 5718 5720 5723 5726 5729 5733 5735 5737 5740 5742 5744 5746 5747 5749 5751 5753 5754 5756 5758 5760 5761 5762 5763 5763 5765 5766 5767 5768 5770 5771 5771 5772 5772 5773 5774 5774 5775 5775 5776 5776 5776 5776 5776 5776 5776 5776 5776 5775 5774 5774 5773 5772 5771 5771 5770 5768
5626 5628 5632 5637 5642 5645 5647 5649 5652 5655 5659 5662 5665 5669 5673 5676 5678 5680 5682 5687 5690 5693 5697 5701 5703 5704 5706 5707 5710 5713 5715 5718 5721 5724 5727 5729 5732 5734 5737 5739 5741 5743 5745 5747 5749 5750 5752 5753 5755 5756 5758 5759 5760 5760 5762 5763 5765 5766 5767 5769 5769 5770 5770 5771 5771 5772 5772 5773 5773 5773 5773 5773 5773 5773 5773 5773 5772 5772 5771 5770 5769 5769 5768 5767 5766 5765
5624 5627 5630 5635 5639 5642 5644 5647 5649 5651 5655 5659 5662 5667 5671 5674 5677 5678 5680 5683 5686 5690 5695 5697 5699 5702 5703 5705 5707 5709 5711 5715 5718 5721 5724 5727 5729 5731 5734 5736 5738 5740 5742 5744 5746 5748 5748 5750 5752 5753 5754 5755 5755 5757 5759 5761 5763 5764 5764 5766 5767 5767 5768 5768 5769 5769 5769 5770 5770 5770 5770 5770 5770 5769 5769 5769 5768 5768 5767 5766 5766 5765 5764 5764 5763 5761
5622 5625 5629 5634 5637 5639 5642 5646 5647 5648 5651 5656 5659 5664 5668 5672 5675 5677 5679 5682 5685 5688 5691 5693 5696 5699 5700 5702 5704 5705 5708 5712 5715 5717 5721 5723 5726 5728 5731 5733 5735 5738 5740 5742 5743 5744 5745 5747 5748 5749 5749 5750 5752 5756 5758 5759 5761 5762 5762 5763 5764 5765 5766 5766 5766 5767 5767 5767 5767 5766 5766 5766 5766 5766 5765 5765 5765 5764 5763 5763 5762 5761 5761 5760 5759 5757
5621 5624 5627 5631 5635 5636 5638 5642 5644 5645 5649 5652 5656 5660 5664 5667 5670 5672 5674 5678 5682 5686 5689 5691 5694 5696 5699 5700 5701 5702 5706 5709 5712 5715 5717 5720 5723 5725 5728 5730 5733 5735 5737 5738 5739 5741 5742 5744 5745 5746 5748 5750 5753 5756 5756 5757 5759 5760 5760 5761 5762 5763 5763 5763 5763 5764 5764 5764 5763 5763 5763 5763 5762 5762 5762 5761 5761 5760 5759 5759 5758 5757 5757 5756 5754 5754
5620 5622 5625 5629 5632 5634 5636 5639 5642 5645 5647 5649 5652 5656 5660 5663 5666 5668 5670 5674 5678 5682 5685 5688 5691 5695 5697 5698 5699 5700 5704 5707 5710 5712 5715 5717 5720 5723 5725 5727 5729 5731 5733 5735 5737 5739 5741 5742 5744 5746 5748 5750 5751 5752 5753 5754 5755 5757 5758 5759 5759 5760 5760 5760 5760 5760 5760 5760 5760 5760 5760 5759 5759 5758 5757 5757 5757 5756 5755 5754 5754 5753 5752 5751 5751 5750
5618 5620 5624 5627 5630 5633 5635 5638 5641 5643 5644 5647 5650 5654 5657 5660 5662 5664 5667 5670 5673 5677 5680 5684 5688 5692 5694 5695 5696 5699 5703 5706 5708 5710 5712 5715 5717 5720 5722 5724 5726 5728 5730 5732 5735 5738 5739 5740 5741 5743 5744 5744 5745 5746 5748 5750 5752 5753 5755 5755 5756 5757 5757 5757 5757 5757 5757 5756 5756 5756 5756 5755 5754 5754 5753 5753 5752 5751 5751 5750 5749 5748 5748 5747 5747 5746
5617 5620 5623 5626 5629 5632 5634 5636 5639 5641 5643 5646 5649 5652 5655 5658 5659 5661 5664 5666 5669 5673 5677 5680 5684 5687 5690 5691 5693 5697 5700 5702 5704 5706 5709 5711 5714 5717 5719 5721 5723 5725 5728 5731 5733 5734 5734 5735 5736 5737 5738 5740 5741 5742 5744 5746 5748 5750 5751 5752 5753 5753 5754 5754 5753 5753 5753 5753 5753 5752 5752 5751 5751 5750 5749 5749 5748 5747 5746 5745 5745 5745 5744 5744 5744 5743
5616 5619 5621 5624 5627 5630 5632 5634 5637 5639 5642 5645 5647 5650 5653 5655 5657 5659 5661 5664 5666 5669 5673 5676 5680 5683 5686 5688 5691 5693 5697 5699 5701 5703 5706 5708 5711 5714 5716 5719 5721 5724 5726 5728 5729 5729 5730 5730 5732 5734 5737 5739 5739 5739 5740 5743 5745 5746 5748 5749 5750 5750 5750 5750 5750 5750 5749 5749 5749 5748 5747 5747 5746 5745 5745 5744 5744 5743 5742 5742 5742 5742 5742 5741 5740 5739
5615 5618 5620 5622 5625 5628 5631 5633 5635 5637 5639 5643 5645 5648 5650 5652 5654 5657 5659 5661 5664 5667 5670 5673 5676 5680 5684 5686 5688 5691 5695 5697 5699 5701 5704 5706 5708 5711 5714 5716 5719 5721 5722 5724 5725 5726 5727 5728 5730 5733 5736 5738 5737 5737 5738 5740 5742 5744 5745 5746 5746 5747 5747 5746 5746 5746 5745 5745 5744 5744 5742 5741 5741 5741 5740 5740 5739 5739 5739 5739 5739 5739 5738 5737 5736 5735
5613 5616 5619 5621 5624 5627 5630 5632 5633 5635 5638 5641 5643 5646 5648 5650 5653 5655 5657 5659 5661 5664 5668 5671 5674 5678 5682 5683 5684 5689 5693 5694 5696 5699 5701 5703 5706 5708 5711 5714 5716 5718 5720 5722 5724 5725 5726 5728 5730 5731 5733 5734 5735 5735 5737 5739 5740 5741 5742 5743 5743 5743 5743 5743 5742 5742 5741 5740 5740 5738 5737 5737 5736 5736 5736 5736 5736 5736 5736 5736 5736 5736 5735 5734 5733 5732
5612 5614 5617 5619 5622 5625 5628 5630 5632 5634 5636 5638 5640 5643 5645 5648 5651 5653 5654 5656 5659 5662 5665 5668 5671 5676 5678 5679 5682 5687 5690 5692 5694 5697 5699 5701 5703 5705 5708 5712 5714 5716 5718 5720 5722 5723 5724 5726 5728 5729 5729 5731 5732 5733 5735 5736 5737 5738 5739 5740 5740 5739 5739 5739 5738 5738 5737 5736 5735 5735 5734 5734 5733 5733 5733 5733 5733 5733 5734 5734 5733 5733 5732 5730 5729 5728
5610 5612 5614 5617 5620 5623 5625 5628 5630 5632 5634 5636 5638 5641 5643 5645 5647 5650 5651 5653 5656 5659 5662 5665 5668 5671 5673 5675 5680 5685 5687 5689 5691 5694 5696 5698 5700 5702 5706 5709 5711 5713 5716 5718 5719 5721 5722 5724 5726 5726 5727 5728 5729 5731 5732 5734 5735 5736 5736 5736 5736 5736 5736 5735 5735 5734 5734 5733 5733 5732 5732 5732 5732 5731 5731 5731 5731 5731 5731 5731 5730 5729 5728 5727 5726 5725
5609 5610 5612 5615 5618 5621 5623 5626 5628 5630 5632 5634 5636 5637 5640 5643 5645 5647 5649 5651 5654 5656 5659 5662 5664 5667 5669 5673 5678 5682 5684 5685 5688 5691 5693 5695 5697 5700 5704 5706 5708 5710 5712 5715 5717 5719 5720 5722 5723 5724 5725 5726 5728 5729 5730 5731 5732 5733 5733 5733 5733 5733 5732 5732 5732 5731 5731 5731 5730 5729 5729 5729 5729 5729 5729 5729 5729 5728 5728 5727 5726 5726 5725 5724 5723 5721
5608 5610 5612 5614 5617 5619 5622 5624 5626 5628 5630 5632 5633 5635 5638 5641 5643 5645 5647 5649 5651 5654 5656 5659 5661 5664 5667 5671 5675 5677 5678 5681 5685 5688 5690 5692 5695 5699 5701 5703 5705 5707 5709 5711 5713 5716 5718 5720 5721 5722 5723 5725 5726 5727 5728 5729 5730 5730 5730 5730 5730 5729 5729 5729 5729 5729 5729 5728 5728 5727 5727 5727 5726 5726 5726 5726 5725 5725 5724 5724 5723 5723 5722 5721 5719 5718
5608 5610 5612 5614 5616 5619 5621 5623 5625 5627 5629 5630 5632 5634 5636 5638 5641 5643 5644 5646 5648 5651 5654 5656 5658 5661 5664 5667 5670 5671 5673 5677 5681 5684 5686 5689 5693 5695 5697 5700 5702 5704 5706 5709 5711 5714 5716 5717 5719 5720 5721 5723 5724 5724 5725 5726 5726 5726 5726 5726 5726 5726 5726 5726 5726 5726 5726 5725 5725 5724 5724 5724 5724 5723 5723 5723 5722 5722 5721 5721 5720 5720 5719 5717 5716 5715
5607 5609 5611 5614 5616 5618 5620 5622 5624 5626 5627 5629 5631 5633 5635 5637 5639 5640 5642 5644 5646 5649 5651 5653 5656 5658 5661 5663 5665 5667 5670 5674 5678 5680 5683 5686 5689 5692 5694 5697 5699 5701 5703 5706 5708 5711 5713 5715 5716 5718 5719 5720 5721 5722 5722 5723 5723 5723 5723 5723 5723 5723 5723 5723 5723 5723 5722 5722 5722 5722 5721 5721 5721 5721 5720 5720 5720 5719 5719 5718 5717 5716 5715 5714 5713 5711
5606 5608 5610 5612 5615 5617 5619 5621 5622 5624 5626 5628 5629 5630 5632 5635 5637 5638 5640 5642 5644 5646 5648 5650 5653 5655 5657 5660 5662 5664 5667 5671 5674 5677 5680 5683 5686 5688 5691 5693 5696 5698 5700 5702 5705 5707 5710 5712 5714 5715 5716 5717 5718 5719 5719 5719 5719 5719 5719 5719 5720 5720 5720 5720 5720 5719 5719 5719 5719 5719 5719 5719 5718 5718 5718 5717 5717 5717 5716 5715 5714 5713 5712 5711 5709 5708
5605 5606 5608 5611 5613 5615 5616 5618 5620 5622 5624 5625 5627 5628 5630 5632 5634 5636 5638 5641 5642 5644 5646 5648 5650 5653 5655 5657 5659 5662 5666 5669 5671 5674 5677 5680 5682 5685 5688 5690 5693 5695 5697 5699 5702 5704 5706 5709 5710 5712 5713 5714 5714 5715 5716 5716 5716 5716 5716 5716 5716 5716 5716 5716 5716 5716 5716 5716 5717 5716 5716 5716 5716 5716 5715 5715 5714 5714 5713 5712 5711 5710 5709 5708 5706 5704
5604 5606 5607 5610 5611 5613 5615 5617 5618 5620 5621 5622 5624 5626 5628 5630 5632 5634 5637 5639 5641 5643 5645 5647 5649 5651 5653 5655 5657 5660 5664 5667 5669 5671 5674 5677 5680 5683 5685 5688 5690 5693 5695 5697 5699 5701 5703 5705 5707 5708 5709 5710 5711 5712 5712 5712 5712 5712 5712 5713 5713 5713 5713 5713 5713 5713 5713 5714 5714 5714 5714 5714 5713 5713 5713 5712 5711 5711 5710 5709 5708 5707 5706 5704 5702 5701
5603 5605 5607 5608 5610 5611 5613 5615 5616 5617 5619 5620 5622 5624 5626 5628 5630 5632 5635 5637 5639 5641 5643 5645 5647 5649 5651 5653 5656 5658 5661 5664 5667 5669 5672 5675 5678 5680 5683 5685 5688 5690 5692 5694 5696 5698 5700 5701 5703 5705 5706 5706 5707 5708 5708 5709 5709 5709 5709 5709 5709 5709 5710 5710 5710 5710 5711 5711 5711 5711 5711 5711 5710 5710 5710 5709 5709 5708 5707 5706 5705 5704 5702 5701 5699 5698
5601 5604 5606 5608 5609 5611 5612 5613 5615 5616 5617 5619 5620 5622 5624 5626 5628 5630 5633 5635 5637 5639 5641 5643 5645 5647 5650 5652 5654 5656 5659 5661 5664 5667 5670 5672 5675 5677 5680 5682 5685 5686 5689 5691 5692 5694 5696 5698 5700 5701 5702 5703 5704 5704 5705 5705 5705 5706 5706 5706 5706 5706 5706 5707 5707 5708 5708 5708 5708 5708 5708 5708 5707 5707 5707 5706 5705 5705 5704 5703 5702 5700 5699 5698 5697 5696
5600 5602 5604 5606 5607 5609 5610 5612 5613 5615 5616 5618 5619 5621 5622 5624 5627 5629 5631 5633 5635 5637 5639 5641 5643 5645 5648 5650 5652 5654 5656 5659 5661 5665 5668 5670 5673 5675 5678 5680 5682 5684 5686 5688 5689 5691 5694 5695 5697 5698 5699 5699 5700 5701 5701 5702 5702 5702 5703 5703 5703 5703 5704 5704 5705 5705 5705 5706 5705 5705 5705 5705 5704 5704 5704 5703 5702 5701 5701 5700 5699 5698 5697 5696 5694 5693
5598 5600 5602 5604 5605 5607 5609 5610 5612 5614 5615 5616 5618 5619 5621 5623 5625 5627 5629 5631 5634 5636 5638 5640 5642 5644 5646 5648 5650 5652 5654 5657 5659 5662 5665 5668 5670 5673 5675 5677 5679 5681 5683 5685 5687 5689 5691 5692 5693 5694 5695 5696 5697 5697 5698 5698 5699 5699 5700 5700 5700 5701 5701 5702 5702 5702 5702 5702 5702 5702 5702 5702 5701 5701 5701 5700 5699 5699 5698 5697 5696 5695 5694 5693 5692 5691